Temp_Advection
nan nan nan nan nan nan nan nan nan nan nan nan nan nan nan nan nan nan nan nan nan nan nan nan nan nan nan nan nan nan nan nan nan nan nan nan nan nan nan nan nan nan nan
nan -0 -0 -0 0 0 0 0 0 0 0 0 0 0 0 0 0 0 0 0 0 -0 0 0 0 0 -0 0 0 0 0 0 0 0 0 0 0 0 0 0 0 0 nan
nan 0 0 0 0 0 0 0 0 0 0 0 0 0 0 0 0 0 0 0 -0 -0 -0 0 1 0 0 0 0 0 0 0 0 0 0 -0 0 0 0 0 0 0 nan
nan 0 0 0 0 0 0 0 0 0 0 0 0 0 0 0 0 0 0 1 0 0 0 -0 0 1 0 0 0 0 0 0 0 0 0 0 0 0 0 0 0 0 nan
nan 0 0 0 0 0 0 0 0 0 0 0 0 0 0 0 0 0 0 0 0 -0 0 -0 -0 0 0 0 0 0 0 0 -0 0 -0 0 0 0 0 0 0 0 nan
nan 0 0 0 0 0 -0 0 0 0 0 0 0 0 1 0 1 1 1 1 1 0 0 0 -0 0 0 0 0 0 0 0 -0 0 0 -0 0 0 0 0 0 0 nan
nan 0 0 0 0 -0 -0 0 0 0 0 0 -0 0 0 1 0 1 1 1 1 0 0 0 0 0 0 0 -0 -0 0 0 0 0 0 0 0 0 0 0 0 0 nan
nan 0 0 0 0 0 0 0 0 0 0 0 0 0 -0 1 1 1 1 0 0 0 0 -0 0 0 0 0 0 -0 -0 0 0 0 -0 0 0 -0 -0 -0 -0 0 nan
nan 0 0 0 0 0 0 0 0 0 0 1 1 -1 -1 -1 0 1 1 1 0 -0 0 -0 0 0 0 0 0 0 0 0 0 -0 -0 -0 -0 0 0 0 0 0 nan
nan 0 0 0 0 0 0 0 1 0 0 1 0 -0 -0 -0 -1 -0 1 1 1 -0 -0 0 0 0 0 0 0 0 0 0 0 0 0 0 0 0 1 0 0 1 nan
nan 0 0 0 0 0 -0 0 0 0 0 1 0 1 1 1 -0 0 1 1 0 0 0 0 0 0 0 0 0 0 0 0 0 0 0 0 0 0 1 1 0 0 nan
nan 0 0 0 0 0 -0 -0 -0 0 -0 -0 0 1 1 1 1 -0 0 0 0 0 0 -0 -0 0 0 0 0 0 0 0 0 0 0 0 1 -0 0 0 -0 0 nan
nan 0 0 0 0 -0 0 -0 -0 -0 -0 -1 -1 -1 -1 -1 -0 -1 -1 -0 0 0 0 0 -0 -0 -0 0 0 0 0 0 0 0 0 0 0 0 0 0 -0 -0 nan
nan 0 0 0 0 0 0 -0 -0 0 0 -0 -0 -0 -1 -1 -1 -1 -0 -0 0 0 0 0 0 0 0 0 0 0 0 0 0 0 -0 0 0 0 0 1 0 0 nan
nan -0 0 0 0 0 0 0 0 0 0 0 0 0 0 -0 -0 -0 0 0 0 0 0 0 0 0 0 0 0 0 0 0 1 1 -0 -1 -0 -0 -0 -0 0 0 nan
nan -0 0 0 0 0 0 1 0 0 0 0 0 0 0 0 -0 -0 -0 0 0 0 0 0 0 0 0 0 0 0 0 0 1 1 0 -0 -0 0 -0 -0 -0 -0 nan
nan 0 0 1 0 0 0 1 0 0 0 0 0 0 0 0 0 0 0 0 0 0 0 -0 0 0 0 0 0 0 0 0 0 0 0 0 0 0 -0 0 0 0 nan
nan 0 1 1 0 0 0 0 0 0 0 1 0 0 0 0 0 0 0 0 0 0 -0 0 0 0 0 0 0 0 0 0 0 0 0 0 0 0 0 0 0 0 nan
nan 1 1 0 0 0 0 0 0 0 1 0 0 0 0 0 0 0 0 0 -0 0 0 0 0 0 0 0 0 0 0 0 0 0 0 0 0 0 0 0 0 0 nan
nan 1 1 1 0 0 0 0 0 1 1 0 0 1 0 0 0 0 1 0 0 0 0 0 1 0 0 1 1 1 1 1 0 0 0 0 0 0 0 0 0 0 nan
nan 1 1 1 -0 0 0 0 0 0 1 1 0 0 0 1 1 1 0 0 0 0 0 1 1 0 0 0 1 0 1 1 1 0 0 0 0 0 0 0 0 0 nan
nan 1 1 1 0 0 0 1 0 1 1 1 1 1 1 0 1 1 0 0 1 0 1 0 0 1 -0 0 0 -0 0 0 0 0 0 0 0 0 0 0 0 -0 nan
nan 2 1 1 0 1 1 1 1 1 1 1 0 0 0 0 1 1 1 1 1 1 1 0 0 0 0 0 0 -0 -0 -0 -0 0 0 0 -0 -0 0 0 -0 -0 nan
nan 1 1 0 1 1 1 1 1 1 1 0 0 1 1 1 1 1 1 1 0 1 1 1 1 0 0 0 -0 -0 -0 0 -0 -0 0 -0 0 0 0 0 0 0 nan
nan 1 1 1 1 1 1 1 1 1 1 1 2 2 1 1 1 1 1 0 1 1 1 1 1 0 0 0 0 0 0 0 -0 -0 -0 -0 0 0 0 0 0 -0 nan
nan nan nan nan nan nan nan nan nan nan nan nan nan nan nan nan nan nan nan nan nan nan nan nan nan nan nan nan nan nan nan nan nan nan nan nan nan nan nan nan nan nan nan
Wind_Speed
11 9 11 12 13 12 13 12 14 16 17 15 15 17 17 15 14 14 15 16 17 17 17 18 19 19 19 19 19 19 19 20 22 22 21 20 19 19 19 19 19 19 18
10 9 11 14 15 15 15 14 14 16 17 17 16 17 20 16 14 14 15 16 16 17 18 20 21 22 22 22 22 21 21 22 20 19 19 19 18 18 18 19 18 19 18
11 9 10 15 17 17 16 15 14 14 16 18 19 18 20 18 17 14 15 17 18 19 19 20 23 24 23 23 23 23 22 22 22 21 21 20 19 17 16 16 18 19 19
10 8 10 15 17 17 17 16 16 16 16 17 19 21 21 18 17 21 19 20 19 20 21 22 26 22 23 23 22 21 21 19 20 21 22 21 20 18 17 16 17 17 17
10 10 12 15 16 16 16 17 17 15 15 18 18 21 22 19 21 24 23 21 21 21 19 18 21 22 23 24 23 22 21 18 18 19 22 23 22 20 18 18 18 16 15
10 8 7 12 13 15 16 18 17 18 18 18 20 21 23 24 25 26 24 22 21 21 19 19 24 23 24 24 22 21 19 16 16 18 16 17 19 19 20 18 16 15 15
9 8 11 11 12 13 12 13 15 18 19 18 20 19 25 29 32 30 27 26 24 23 21 22 23 23 22 22 21 20 18 16 13 13 13 14 14 14 15 16 18 18 17
9 7 11 12 10 9 8 9 12 16 15 17 26 27 17 33 43 36 26 23 18 15 20 22 24 23 21 20 18 17 15 13 12 10 11 14 15 13 13 13 15 14 15
11 10 11 10 10 7 7 9 12 17 19 23 20 23 22 19 34 35 27 25 19 13 15 22 24 24 21 18 16 14 12 11 11 13 13 13 13 11 11 11 11 11 13
15 13 12 11 9 8 11 11 19 23 19 25 22 19 15 15 25 26 25 27 22 16 16 21 23 24 22 19 16 14 12 10 9 10 11 10 9 9 9 10 10 12 11
19 17 14 14 12 11 15 15 19 19 20 23 20 18 25 26 24 23 25 25 19 19 21 21 23 23 22 20 17 14 11 10 9 9 10 11 11 13 13 13 11 8 7
23 21 18 17 16 17 20 22 24 22 20 20 22 22 23 25 24 24 23 19 18 20 23 24 23 22 21 19 17 14 12 9 10 12 13 17 18 16 12 10 11 9 6
26 24 23 21 19 20 20 21 20 17 18 21 22 23 23 24 22 20 21 19 20 20 21 21 22 21 19 18 16 14 13 12 14 16 16 18 16 13 11 9 8 7 7
29 29 27 23 23 23 20 19 19 21 22 22 24 23 22 23 23 24 22 20 19 19 19 19 19 18 18 17 15 13 12 14 16 17 18 14 14 13 12 9 7 6 5
28 32 30 29 27 25 22 22 23 23 22 22 24 24 22 21 24 24 22 22 21 19 17 18 18 17 16 15 15 13 14 15 15 16 16 15 14 8 7 8 7 5 3
28 32 33 32 31 29 26 26 25 24 22 21 22 22 21 20 19 18 18 19 22 19 17 16 16 16 17 16 15 15 15 15 16 16 16 12 6 7 8 7 6 4 3
28 33 34 36 35 33 31 30 28 27 22 20 21 21 18 17 16 15 16 17 14 13 14 15 16 17 16 16 15 15 15 15 16 17 15 12 9 9 7 6 6 5 5
29 31 35 36 36 36 35 32 29 29 27 23 20 18 16 15 14 14 14 14 16 17 15 13 14 16 16 15 16 16 15 15 15 16 15 13 10 9 8 7 5 5 5
28 28 34 35 37 37 36 35 30 29 29 27 23 21 19 18 19 17 16 15 15 14 14 13 14 14 16 16 15 15 15 14 14 13 12 11 10 9 8 7 5 5 4
30 28 28 33 34 37 37 35 33 32 30 28 26 24 23 22 21 21 20 20 19 19 19 17 15 16 14 16 17 15 14 13 12 12 11 11 10 10 9 7 7 6 6
31 31 31 33 31 37 38 38 36 35 33 31 28 27 25 25 25 23 22 21 20 19 18 17 18 17 19 18 19 17 15 14 13 12 11 11 10 9 9 9 8 8 7
34 32 33 36 30 32 35 38 38 36 33 32 31 29 27 27 25 23 23 23 20 20 20 20 20 19 17 18 18 15 11 12 15 15 14 13 12 11 10 9 8 8 8
31 33 33 34 30 31 34 37 38 34 33 33 33 31 29 27 26 26 24 22 21 20 21 20 18 20 18 20 18 11 7 8 15 16 16 14 12 12 11 10 8 8 9
28 30 30 31 32 29 31 34 35 35 35 34 32 31 31 30 29 27 26 24 25 24 21 21 21 20 17 17 19 20 13 7 8 9 18 16 14 14 12 10 9 9 9
17 26 29 32 30 28 29 30 33 32 32 32 32 30 30 31 31 29 29 29 27 27 25 26 25 23 22 20 20 21 21 17 13 9 9 18 17 16 13 11 10 9 10
13 16 21 20 23 27 28 29 26 24 25 27 27 28 28 29 29 30 29 30 29 28 29 26 27 27 26 25 23 22 22 22 20 18 15 15 17 16 15 13 11 12 11
Wind_Direction
188 184 192 191 195 192 190 198 194 197 191 188 186 167 162 161 154 146 144 147 147 144 142 142 143 137 137 142 138 135 133 135 125 123 121 119 118 117 117 116 116 110 112
186 196 201 198 199 199 199 196 202 207 207 197 189 178 169 165 149 144 149 143 145 144 142 141 140 136 137 134 133 136 131 127 128 126 122 118 117 119 116 115 114 113 109
169 188 202 203 205 206 207 205 210 212 205 203 196 190 172 175 174 160 159 150 146 143 143 139 138 140 140 137 133 132 133 130 128 126 121 117 115 117 117 117 113 115 119
192 206 207 206 208 211 213 214 216 214 208 206 201 199 202 191 166 157 158 150 146 143 146 124 133 139 139 139 137 135 130 129 128 125 118 115 113 113 117 120 117 117 118
198 204 209 205 208 212 214 215 213 215 212 210 205 199 202 191 179 158 155 149 145 147 150 138 137 143 139 137 136 131 126 129 129 130 124 117 114 117 118 111 110 110 113
192 203 194 192 201 211 215 221 220 218 215 208 205 194 185 185 167 171 179 158 151 154 146 149 147 144 142 141 144 138 140 141 138 132 136 127 118 114 109 113 118 116 110
197 194 171 176 191 212 222 228 224 220 219 209 202 195 196 179 167 162 156 160 156 157 151 147 150 146 149 149 146 147 150 152 161 161 159 147 140 137 129 124 123 117 117
195 195 175 177 187 196 190 196 202 206 204 201 205 185 124 139 143 142 139 143 151 153 145 154 155 154 158 161 159 156 156 166 172 177 177 174 154 149 152 152 142 140 135
178 180 180 184 194 209 207 212 190 185 206 166 151 145 135 123 130 136 137 137 136 135 155 154 159 162 167 167 165 162 155 149 150 150 144 142 145 152 150 147 150 166 169
180 193 190 187 185 175 164 173 169 173 185 200 199 186 179 156 143 145 143 148 147 161 170 165 163 166 171 172 172 166 166 160 150 145 147 148 153 154 149 147 143 169 179
179 192 193 181 182 172 160 163 172 179 169 168 184 188 203 186 177 161 158 149 151 170 168 171 168 171 174 178 179 178 180 170 165 158 150 146 138 127 129 131 137 137 181
185 191 193 184 182 174 166 168 163 167 162 159 162 174 163 160 162 157 156 160 162 169 167 173 175 177 182 188 186 184 185 176 169 164 152 129 134 128 132 145 143 141 133
186 189 193 192 192 185 181 182 178 170 165 161 153 146 145 148 151 159 162 164 173 178 175 176 177 179 187 193 190 187 183 174 170 163 149 145 147 150 151 157 149 153 175
191 192 195 197 197 193 192 187 183 171 163 154 150 148 157 163 167 175 174 170 176 177 173 172 175 179 186 192 190 185 180 177 176 170 156 160 132 133 134 150 170 185 185
199 194 195 197 200 202 194 186 187 180 170 167 167 171 175 177 173 172 169 173 175 172 174 180 178 178 187 193 189 183 180 178 181 183 178 161 165 156 136 127 132 151 166
207 201 197 199 201 205 199 191 189 188 185 180 175 176 177 179 177 175 175 178 178 170 169 177 178 181 185 188 184 179 182 182 186 192 201 202 197 188 176 182 173 172 179
216 204 203 201 204 204 204 198 200 200 201 199 192 185 186 186 186 188 185 182 177 180 180 179 176 175 182 182 185 183 187 187 193 199 210 217 222 223 227 216 209 205 200
215 209 205 203 205 206 206 203 204 208 210 210 208 205 199 199 202 204 194 186 181 177 180 189 187 182 182 186 190 186 190 193 199 204 210 219 223 231 230 220 212 211 219
214 213 206 208 206 207 208 209 212 212 211 211 212 213 210 210 206 204 203 200 200 200 199 194 190 193 187 187 194 192 192 200 203 210 213 217 220 224 230 238 230 222 229
214 212 210 209 209 211 211 212 213 213 214 214 216 216 214 213 212 206 205 203 200 200 195 195 195 185 186 186 188 191 192 200 210 214 220 221 222 229 231 233 232 235 242
215 213 209 208 209 213 213 213 212 212 212 213 215 215 213 214 212 207 206 205 207 205 198 192 189 192 186 185 185 180 186 199 211 220 225 234 232 230 233 232 236 237 240
212 213 210 211 213 216 218 217 219 218 217 216 213 214 214 213 212 212 210 208 206 206 205 201 197 193 197 197 194 190 192 208 215 215 220 227 232 233 237 242 248 259 267
203 210 211 213 214 218 217 218 219 218 216 213 212 213 214 216 217 216 210 211 208 209 213 209 209 205 208 206 200 199 189 209 210 223 225 231 239 245 242 247 250 255 264
193 202 209 213 217 220 221 220 224 223 220 222 222 217 215 218 219 212 217 212 217 205 211 220 211 208 216 224 217 218 222 214 189 195 222 227 229 237 244 243 252 262 267
166 187 198 206 214 217 218 221 221 224 226 227 222 219 216 217 218 216 212 216 214 218 210 207 211 215 211 222 231 234 229 229 225 219 208 219 226 230 235 237 248 265 271
137 165 182 196 206 209 212 211 217 226 231 228 226 223 222 222 222 220 217 218 215 215 221 222 216 214 216 219 222 232 237 236 236 229 226 220 223 228 232 237 249 263 261
Height
1474 1476 1478 1479 1481 1483 1485 1486 1487 1488 1489 1491 1492 1492 1494 1496 1496 1498 1498 1500 1501 1502 1505 1505 1507 1509 1512 1515 1517 1519 1520 1521 1522 1524 1525 1526 1527 1527 1529 1530 1531 1532 1533
1473 1475 1476 1477 1479 1481 1484 1485 1486 1487 1489 1490 1492 1492 1493 1494 1496 1498 1499 1499 1501 1502 1505 1507 1508 1509 1514 1516 1518 1520 1522 1523 1523 1526 1527 1528 1529 1530 1531 1532 1534 1534 1535
1472 1473 1474 1474 1477 1479 1481 1483 1484 1485 1486 1489 1490 1492 1491 1493 1493 1491 1500 1500 1501 1502 1505 1507 1507 1511 1515 1517 1519 1521 1523 1523 1524 1526 1528 1529 1531 1532 1533 1535 1535 1536 1537
1470 1471 1472 1473 1474 1476 1478 1480 1482 1483 1485 1487 1488 1490 1492 1493 1490 1494 1499 1499 1500 1503 1505 1500 1506 1512 1515 1518 1521 1522 1524 1526 1527 1529 1529 1531 1532 1534 1535 1537 1538 1539 1539
1468 1469 1471 1472 1472 1474 1476 1478 1480 1481 1483 1485 1487 1488 1490 1492 1494 1494 1497 1500 1500 1503 1505 1506 1510 1514 1516 1519 1521 1524 1526 1528 1529 1531 1532 1533 1534 1536 1537 1538 1540 1541 1542
1466 1468 1469 1470 1472 1472 1474 1476 1478 1479 1480 1482 1484 1487 1489 1491 1492 1492 1495 1497 1501 1503 1505 1508 1513 1516 1518 1520 1522 1525 1528 1530 1532 1533 1535 1536 1537 1537 1539 1541 1542 1544 1544
1465 1467 1469 1470 1471 1471 1472 1474 1477 1477 1479 1481 1482 1486 1486 1489 1487 1492 1495 1497 1502 1504 1506 1510 1514 1517 1519 1521 1524 1526 1529 1531 1533 1534 1536 1538 1539 1539 1540 1542 1544 1545 1545
1464 1466 1468 1470 1470 1470 1471 1472 1475 1476 1478 1478 1478 1482 1478 1478 1478 1488 1495 1500 1503 1506 1507 1512 1515 1518 1520 1522 1524 1527 1530 1531 1533 1535 1536 1538 1539 1540 1541 1543 1545 1546 1547
1464 1466 1468 1470 1470 1470 1469 1470 1472 1475 1476 1479 1478 1481 1482 1485 1484 1489 1495 1500 1503 1506 1509 1514 1517 1518 1520 1522 1524 1527 1530 1532 1534 1535 1537 1538 1539 1540 1541 1543 1545 1545 1547
1464 1466 1467 1469 1470 1470 1470 1469 1470 1472 1475 1477 1478 1481 1481 1488 1487 1494 1499 1501 1503 1509 1511 1516 1517 1519 1521 1522 1525 1528 1530 1532 1534 1536 1537 1539 1540 1541 1541 1543 1544 1544 1546
1461 1464 1467 1468 1469 1470 1471 1471 1472 1472 1474 1476 1476 1477 1481 1486 1488 1494 1497 1500 1503 1507 1511 1515 1517 1519 1521 1523 1525 1528 1530 1532 1534 1536 1538 1540 1541 1542 1542 1543 1544 1545 1545
1458 1462 1465 1467 1468 1470 1471 1471 1471 1473 1474 1477 1478 1479 1481 1485 1487 1493 1497 1502 1504 1507 1510 1514 1517 1519 1521 1523 1525 1528 1530 1532 1534 1535 1538 1540 1541 1542 1542 1542 1543 1544 1546
1454 1459 1463 1466 1467 1469 1471 1472 1473 1475 1476 1478 1480 1482 1484 1487 1489 1495 1498 1500 1503 1508 1510 1513 1516 1519 1521 1523 1525 1528 1529 1532 1534 1535 1537 1539 1540 1540 1541 1541 1542 1543 1544
1450 1455 1459 1463 1466 1468 1470 1474 1474 1476 1477 1479 1482 1484 1487 1488 1491 1495 1498 1500 1504 1508 1510 1512 1515 1518 1521 1523 1525 1527 1528 1531 1533 1534 1537 1538 1540 1540 1541 1541 1541 1541 1543
1447 1451 1454 1460 1464 1466 1469 1473 1475 1477 1478 1481 1483 1486 1489 1491 1493 1496 1497 1501 1505 1507 1509 1513 1516 1518 1521 1522 1525 1526 1529 1530 1533 1535 1536 1537 1538 1539 1540 1541 1541 1541 1541
1443 1446 1451 1454 1460 1464 1467 1471 1474 1477 1479 1481 1484 1488 1490 1492 1494 1497 1500 1503 1505 1505 1508 1511 1514 1517 1519 1522 1523 1526 1528 1530 1533 1535 1535 1535 1537 1538 1539 1539 1540 1540 1541
1436 1441 1445 1450 1455 1459 1464 1469 1473 1476 1478 1481 1484 1486 1489 1492 1494 1496 1497 1500 1502 1504 1508 1510 1512 1516 1518 1520 1523 1526 1528 1530 1532 1534 1535 1536 1536 1537 1538 1539 1539 1539 1539
1433 1436 1441 1446 1451 1455 1459 1464 1468 1473 1477 1481 1483 1486 1488 1489 1492 1495 1496 1498 1502 1504 1507 1510 1513 1515 1517 1519 1522 1525 1528 1529 1531 1533 1533 1535 1536 1537 1537 1538 1538 1539 1539
1428 1433 1438 1441 1446 1452 1457 1461 1465 1469 1474 1478 1480 1484 1487 1489 1491 1493 1495 1497 1500 1503 1506 1509 1512 1516 1517 1518 1522 1525 1527 1528 1531 1532 1532 1534 1535 1536 1536 1536 1538 1538 1538
1425 1430 1435 1439 1444 1448 1454 1458 1462 1465 1468 1473 1477 1481 1484 1487 1491 1494 1496 1498 1500 1504 1505 1507 1509 1513 1517 1518 1520 1523 1525 1527 1529 1530 1531 1532 1533 1534 1534 1535 1536 1536 1537
1420 1424 1429 1433 1440 1444 1449 1452 1456 1460 1464 1469 1474 1478 1481 1484 1489 1492 1495 1497 1500 1502 1504 1505 1508 1510 1513 1517 1520 1521 1523 1525 1526 1527 1528 1530 1531 1531 1531 1532 1533 1534 1535
1413 1419 1424 1428 1434 1439 1445 1450 1453 1457 1461 1465 1469 1473 1477 1482 1485 1489 1492 1495 1497 1501 1503 1504 1507 1508 1512 1516 1518 1522 1523 1525 1524 1524 1525 1528 1529 1529 1530 1531 1532 1533 1532
1410 1414 1419 1423 1430 1434 1439 1443 1449 1454 1458 1460 1463 1468 1473 1478 1482 1486 1489 1492 1495 1498 1502 1504 1505 1508 1509 1514 1516 1520 1520 1519 1520 1522 1524 1525 1527 1527 1528 1529 1531 1531 1531
1406 1411 1416 1421 1425 1430 1435 1439 1444 1449 1452 1457 1461 1465 1469 1473 1477 1481 1485 1488 1492 1495 1499 1502 1505 1506 1509 1512 1515 1516 1517 1517 1517 1518 1521 1522 1523 1524 1525 1525 1527 1528 1528
1406 1410 1414 1418 1422 1426 1431 1436 1440 1445 1449 1453 1457 1461 1465 1468 1471 1476 1480 1485 1488 1492 1494 1497 1500 1504 1505 1508 1511 1512 1513 1514 1514 1516 1516 1518 1520 1521 1521 1523 1523 1524 1525
1407 1409 1413 1416 1420 1424 1428 1433 1438 1442 1446 1450 1454 1458 1462 1465 1468 1471 1475 1480 1483 1486 1491 1494 1496 1498 1501 1504 1505 1507 1508 1510 1510 1512 1513 1514 1517 1518 1519 1520 1520 1521 1521